Вернуться в каталог

ARTEMIS

АктивенСвязьGEO
NORAD 26863·PAYLOAD·🇪🇺 EU

Запущен Jul 12, 2001 с Guiana Space Centre

Loading…

TLE

СвежийSource: Space-Track

Эпоха: Sep 14, 2026, 11:01 UTC

1 26863U 01029A   26257.45955243  .00000054  00000-0  00000-0 0  9995
2 26863  14.8098   5.7646 0014330 180.7649 195.8929  0.99290188 44749

Отслеживайте ARTEMIS в реальном времени с AllMySat

Download on the App Store